Simultaneous Nadir Overpasses (SNOs) Predictions

Prediction of SNOs between METOP-B and NPP Satellite Orbit:

Table of predicted SNOs for the next 14.0 days since TLE Epoch: 3/26/2016
Index Date (METOP-B) Time (METOP-B) Lat,Lon (METOP-B) SZA (METOP-B ) Date (NPP) Time (NPP) Lat,Lon (NPP) SZA (NPP ) Distance(km) Time Diff (sec)
1 04/06/2016 17:16:15 73.45, -85.88 66.70 04/06/2016 17:15:06 73.47, -88.13 66.84 71.41 69
2 04/06/2016 18:06:59 -73.37, 81.26 113.39 04/06/2016 18:05:49 -73.40, 79.34 113.26 61.23 70
3 04/06/2016 18:57:42 73.18,-111.82 66.43 04/06/2016 18:56:30 73.17,-112.85 66.49 32.89 72
4 04/06/2016 19:48:26 -73.10, 55.33 113.66 04/06/2016 19:47:13 -73.10, 54.62 113.61 22.83 73
5 04/06/2016 20:39:09 72.91,-137.75 66.16 04/06/2016 20:37:55 72.93,-137.69 66.19 2.88 74
6 04/06/2016 21:29:51 -72.93, 29.62 113.84 04/06/2016 21:28:39 -72.91, 29.67 113.85 3.08 72
7 04/06/2016 22:20:30 72.94,-163.03 66.16 04/06/2016 22:19:25 72.93,-163.07 66.17 1.71 65
8 04/06/2016 23:11:13 -72.91, 4.24 113.88 04/06/2016 23:10:09 -72.91, 4.29 113.87 1.55 64
9 04/07/2016 00:01:52 72.92, 171.59 66.11 04/07/2016 00:00:55 72.93, 171.55 66.14 2.19 57
10 04/07/2016 00:52:35 -72.89, -21.14 113.93 04/07/2016 00:51:39 -72.91, -21.10 113.90 3.08 56
11 04/07/2016 01:43:14 72.90, 146.21 66.07 04/07/2016 01:42:24 72.89, 146.27 66.07 2.44 50
12 04/07/2016 02:33:56 -72.92, -46.42 113.93 04/07/2016 02:33:09 -72.92, -46.48 113.92 1.99 47
13 04/07/2016 03:24:36 72.88, 120.83 66.03 04/07/2016 03:23:54 72.89, 120.89 66.04 2.52 42
14 04/07/2016 04:15:18 -72.90, -71.80 113.97 04/07/2016 04:14:39 -72.92, -71.86 113.94 3.10 39
15 04/07/2016 05:05:57 72.91, 95.55 66.03 04/07/2016 05:05:24 72.89, 95.51 66.02 2.09 33
16 04/07/2016 05:56:40 -72.88, -97.18 114.02 04/07/2016 05:56:08 -72.88, -97.14 114.02 1.58 32
17 04/07/2016 06:47:19 72.89, 70.17 65.98 04/07/2016 06:46:54 72.90, 70.12 66.00 1.86 25
18 04/07/2016 07:38:02 -72.86,-122.57 114.06 04/07/2016 07:37:38 -72.88,-122.52 114.04 2.54 24
19 04/07/2016 08:28:41 72.87, 44.79 65.94 04/07/2016 08:28:23 72.85, 44.85 65.92 2.69 18
20 04/07/2016 09:19:23 -72.89,-147.84 114.06 04/07/2016 09:19:08 -72.88,-147.90 114.06 2.23 15
21 04/07/2016 10:10:03 72.85, 19.40 65.89 04/07/2016 10:09:53 72.86, 19.46 65.90 2.21 10
22 04/07/2016 11:00:45 -72.87,-173.22 114.11 04/07/2016 11:00:38 -72.89,-173.29 114.08 2.75 7
23 04/07/2016 11:51:24 72.88, -5.87 65.89 04/07/2016 11:51:23 72.86, -5.92 65.88 2.53 1
24 04/07/2016 12:42:07 -72.85, 161.39 114.15 04/07/2016 12:42:07 -72.84, 161.44 114.16 1.79 0
25 04/07/2016 13:32:46 72.86, -31.25 65.85 04/07/2016 13:32:53 72.86, -31.30 65.85 1.65 7
26 04/07/2016 14:23:29 -72.83, 136.01 114.19 04/07/2016 14:23:37 -72.84, 136.05 114.18 2.03 8
27 04/07/2016 15:14:08 72.84, -56.64 65.80 04/07/2016 15:14:22 72.82, -56.58 65.78 3.00 14
28 04/07/2016 16:04:50 -72.86, 110.74 114.19 04/07/2016 16:05:07 -72.85, 110.67 114.21 2.58 17
29 04/07/2016 16:55:30 72.82, -82.02 65.76 04/07/2016 16:55:52 72.82, -81.96 65.76 1.97 22
30 04/07/2016 17:46:12 -72.84, 85.35 114.24 04/07/2016 17:46:37 -72.85, 85.29 114.23 2.51 25
31 04/07/2016 18:36:51 72.85,-107.30 65.76 04/07/2016 18:37:22 72.82,-107.34 65.73 2.99 31
32 04/07/2016 19:27:34 -72.82, 59.97 114.28 04/07/2016 19:28:06 -72.81, 60.01 114.31 2.12 32
33 04/07/2016 20:18:13 72.83,-132.68 65.71 04/07/2016 20:18:52 72.83,-132.73 65.71 1.61 39
34 04/07/2016 21:08:56 -72.80, 34.59 114.33 04/07/2016 21:09:36 -72.81, 34.63 114.33 1.56 40
35 04/07/2016 21:59:34 72.81,-158.06 65.67 04/07/2016 22:00:21 72.83,-158.11 65.69 3.29 47
36 04/07/2016 22:50:16 -72.83, 9.31 114.33 04/07/2016 22:51:05 -72.81, 9.25 114.35 3.02 49
37 04/07/2016 23:40:56 72.79, 176.56 65.63 04/07/2016 23:41:50 72.79, 176.61 65.61 1.83 54
38 04/08/2016 00:31:38 -72.81, -16.07 114.37 04/08/2016 00:32:35 -72.82, -16.14 114.37 2.40 57
39 04/08/2016 01:22:18 72.77, 151.18 65.58 04/08/2016 01:23:20 72.79, 151.23 65.59 3.18 62
40 04/08/2016 02:13:00 -72.79, -41.45 114.42 04/08/2016 02:14:04 -72.77, -41.42 114.45 2.52 64
41 04/08/2016 03:03:39 72.80, 125.90 65.58 04/08/2016 03:04:50 72.79, 125.85 65.57 1.74 71
42 04/08/2016 03:54:22
